{"data":{"norad_id":67613,"intl_designator":"2026-018AA","name":"STARLINK-36597","alt_names":[],"object_type":"PAYLOAD","status":"ACTIVE","operator":null,"country":"US","launch_date":"2026-01-29","launch_site_code":"AFWTR","launch_vehicle":null,"mission":null,"orbit_class":"UNKNOWN","rcs_meters":null,"size_class":null,"mass_kg":null,"dimensions":null,"purposes":["comms"],"wikipedia_slug":null,"has_3d_model":false,"image_url":null,"decayed_at":null,"tle_current":{"epoch":"2026-09-19T22:57:21.355488Z","epoch_age_seconds":116730,"freshness":"FRESH","line1":"1 67613U 26018AA  26262.95649717  .00015327  00000+0  47616-3 0  9990","line2":"2 67613  97.2867 326.3708 0000535  91.7427 268.3877 15.33442003 37103","mean_motion":15.33442003,"eccentricity":5.35e-5,"inclination_deg":97.2867,"raan_deg":326.3708,"arg_perigee_deg":91.7427,"mean_anomaly_deg":268.3877,"bstar":0.00047616,"rev_number":3710,"period_min":93.906388189629,"perigee_km":465.18595408969,"apogee_km":465.91822882248,"semimajor_km":6843.6890914561,"source":"CELESTRAK","updated_at":"2026-09-20T09:00:43.609013Z"}}}